{"data":{"norad_id":56000,"intl_designator":"2023-042Q","name":"STARLINK-5910","alt_names":[],"object_type":"PAYLOAD","status":"ACTIVE","operator":null,"country":"US","launch_date":"2023-03-24","launch_site_code":"AFETR","launch_vehicle":null,"mission":null,"orbit_class":"UNKNOWN","rcs_meters":null,"size_class":null,"mass_kg":null,"dimensions":null,"purposes":["comms"],"wikipedia_slug":null,"has_3d_model":false,"image_url":null,"decayed_at":null,"tle_current":{"epoch":"2026-09-20T19:48:42.493248Z","epoch_age_seconds":78105,"freshness":"FRESH","line1":"1 56000U 23042Q   26263.82549182 -.00000262  00000+0  12861-7 0  9995","line2":"2 56000  43.0049  37.5152 0001514 276.7819  83.2860 15.27572558192711","mean_motion":15.27572558,"eccentricity":0.0001514,"inclination_deg":43.0049,"raan_deg":37.5152,"arg_perigee_deg":276.7819,"mean_anomaly_deg":83.286,"bstar":1.2861e-8,"rev_number":19271,"period_min":94.267207960671,"perigee_km":482.03259320661,"apogee_km":484.11016710412,"semimajor_km":6861.2083801554,"source":"CELESTRAK","updated_at":"2026-09-21T09:00:33.351733Z"}}}